COSMOS 2498

Satellite information

Favourite Embed

Satellite Type and Status

PAYLOADIN ORBIT

Key statistics

Satellite COSMOS 2498 at a glance.

Uptime

4064

Days in orbit

Revolutions

≈ 12.4

Per day

Orbit

LEO

Low Earth Orbit

Inclination

82.4

Latest

Satellite identification and parameters

Extended collection of information and parameters for COSMOS 2498.

Object identification

Identified? True

Debris? False

Object name: COSMOS 2498

International designator: 2014-028C

Object number (NORAD): 39763

Object ID (CCSDS): 39763

Country: COMMONWEALTH OF INDEPENDENT STATES (CIS)

Current information (Y/N): Y

RCS size: LARGE

Orbital parameters

Period: 115.852 minutes

Inclination: 82.4486 deg

SMA: 7872.193 km

Apoapsis: 1511.378 km

Periapsis: 1476.737 km

RAAN: 324.5202 deg

Eccentricy: 0.0022002

Argument of periapsis: 104.9976 deg

Mean anomaly: 255.3541 deg

Mean motion: 12.4296583 rev/day

Mean motion (dot): 0.00000008 rev/day2

B* drag term: -0.000013813 1/REarth

Two-line elements (TLE)

Creation date: July 8, 2025, 2:27 a.m.

Reference frame: TEME

Reference center: EARTH

Epoch: July 7, 2025, 10:55 p.m. UTC

TLE line 0: 0 COSMOS 2498

TLE line 1: 1 39763U 14028C 25188.95537902 .00000008 00000-0 -13813-4 0 9996

TLE line 2: 2 39763 82.4486 324.5202 0022002 104.9976 255.3541 12.42965830504781

Live tracking on map

Real-time ground track for satellite COSMOS 2498.

In-orbit conjunctions

There are no conjunctions computed for COSMOS 2498, at the moment. Check back to stay up to date, as we update our databases every day.

Go to all conjunctions

Associated space launch

Classified payload for Russia

COSMOS 2498 was lifted into orbit during the mission ‘Rokot / Briz-KM | 3x Strela-3M (Kosmos 2496, Kosmos 2497, Kosmos 2498) & Kosmos 2499’, on board a Rokot/Briz-KM space rocket.

The launch took place on May 23, 2014, 5:27 a.m. from 133/3 (133L).

For more information about the launch, click the button.

Launch to space Rokot / Briz-KM | 3x Strela-3M (Kosmos 2496, Kosmos 2497, Kosmos 2498) & Kosmos 2499
Rokot / Briz-KM | 3x Strela-3M (Kosmos 2496, Kosmos 2497, Kosmos 2498) & Kosmos 2499

Agency: N/A

Status: Launch Successful

Launch date: May 23, 2014, 5:27 a.m. UTC

Rocket: Rokot/Briz-KM

Launch pad: 133/3 (133L)

Location: Plesetsk Cosmodrome, Russian Federation

...

Latest news about this satellite

There are no fresh news available about this satellite. Check back as we update our databases every day.


Newsletter sign-up

Weekly statistics, charts and insights to help you stay on top of the space industry.